Overview Statistics Trail Chart Weather Telemetry Raw packets
 

This is the latest recevied weather packets stored in our database for station/object SP6FIG. If no packets are shown the sender has not sent any weather packets the latest 10 day(s).

<< 2 3 4 5 6 7 8 >>
Time Temp. Humidity Pressure Rain* Wind** Luminosity Snow
1777728638 24.44° C 23% 972.9 hPa - - - -
1777728038 23.89° C 26% 973.1 hPa - - - -
1777727439 23.89° C 27% 973.1 hPa - - - -
1777726839 23.89° C 26% 973.4 hPa - - - -
1777726238 23.89° C 25% 973.4 hPa - - - -
1777725638 23.89° C 28% 973.6 hPa - - - -
1777725038 23.89° C 25% 973.7 hPa - - - -
1777724439 23.33° C 28% 973.7 hPa - - - -
1777723838 23.33° C 27% 974 hPa - - - -
1777723249 23.33° C 27% 974.1 hPa - - - -
1777722639 23.33° C 27% 974.2 hPa - - - -
1777722039 23.33° C 28% 974.3 hPa - - - -
1777721438 23.33° C 27% 974.4 hPa - - - -
1777720838 23.33° C 27% 974.6 hPa - - - -
1777720238 22.78° C 30% 974.7 hPa - - - -
1777719639 23.33° C 28% 974.7 hPa - - - -
1777719039 22.78° C 31% 974.8 hPa - - - -
1777718439 22.78° C 31% 974.9 hPa - - - -
1777717838 22.78° C 32% 975 hPa - - - -
1777717238 22.22° C 31% 975.2 hPa - - - -
1777716639 22.22° C 33% 975.4 hPa - - - -
1777716039 22.22° C 34% 975.4 hPa - - - -
1777715438 22.22° C 34% 975.5 hPa - - - -
1777714839 22.22° C 35% 975.6 hPa - - - -
1777714239 22.22° C 33% 975.7 hPa - - - -

* Rain since midnight (hover to see other rain measurements)
** Current wind speed in m/s (hover to see current wind gust speed)